Location: Cisewo
(53.3833°N, 14.9000°E)
Time: 03:22:09
(UTC+00:00)

BEESAT 3 - Pass Details

Date: 01 October 2021
Orbit: 481 x 510 km, 64.9° (Epoch: 16 October)

Event Time Altitude Azimuth Distance (km) Brightness Sun altitude
Rises 17:06:01 0° 305° (NW) 2,607 ? -5.2°
Reaches altitude 10° 17:08:55 10° 328° (NNW) 1,728 ? -5.6°
Maximum altitude 17:11:18 16° 7° (N) 1,414 ? -6.0°
Drops below altitude 10° 17:13:42 10° 45° (NE) 1,734 ? -6.3°
Enters shadow 17:15:20 - 60° (ENE) 2,197 ? -6.6°
